Flag for Portugal Weather past 2 weeks in Funchal, Madeira, Portugal

Now
57 °F

Passing clouds.


Feels Like: 56 °F
Forecast: 57 / 67 °F
Wind: 7 mph from North

Location: Aeroporto Da Madeira

Current Time: Apr 19, 2015 at 12:59:41 AM

Latest Report: Apr 19, 2015 at 12:30 AM


Visibility: N/A

Pressure: 30.18 "Hg

Humidity: 67%

Dew point: 46 °F

Location of FunchalLocation

Historic Weather in Funchal — Graph

°F

Funchal temperature yesterday

Maximum temperature yesterday: 64 °F (at 12:00 PM)
Minimum temperature yesterday: 57 °F (at 10:00 PM)
Average temperature yesterday: 61 °F

Past Weeks' High & Low Weather Summary

 TemperatureHumidityPressure
High70 °F (Apr 12, 2:00 PM)94% (Apr 7, 12:30 AM)30.30 "Hg (Apr 7, 12:30 AM)
Low52 °F (Apr 14, 5:00 AM)48% (Apr 6, 3:30 AM)29.83 "Hg (Apr 6, 5:30 PM)
Average61 °F69%30.07 "Hg
* Reported Apr 3 11:30 PM — Apr 18 11:30 PM, Funchal, Weather by CustomWeather, © 2015

Note: Actual official high and low records may vary slightly from our data, if they occured in-between our weather recording intervals... More about our weather records

Advertising

Funchal weather history for previous 24 hours

 ConditionsComfort  
Time TempWeatherWind HumidityBarometerVisibility
11:30 PM
Sat, Apr 18
57 °FPassing clouds.6 mph67%30.18 "HgN/A
11:00 PM59 °FPassing clouds.3 mph63%30.18 "HgN/A
10:30 PM59 °FPassing clouds.6 mph63%30.18 "HgN/A
10:00 PM57 °FPassing clouds.3 mph67%30.18 "HgN/A
9:30 PM59 °FPassing clouds.2 mph63%30.18 "HgN/A
9:00 PM59 °FPassing clouds.5 mph63%30.15 "HgN/A
8:30 PM61 °FPassing clouds.6 mph59%30.15 "HgN/A
8:00 PM61 °FScattered clouds.6 mph63%30.15 "HgN/A
7:30 PM63 °FScattered clouds.13 mph64%30.15 "HgN/A
7:00 PM63 °FScattered clouds.14 mph59%30.12 "HgN/A
6:30 PM63 °FScattered clouds.16 mph64%30.12 "HgN/A
6:00 PM63 °FScattered clouds.17 mph59%30.12 "HgN/A
5:30 PM63 °FScattered clouds.17 mph64%30.12 "HgN/A
5:00 PM64 °FScattered clouds.15 mph68%30.12 "HgN/A
4:30 PM63 °FBroken clouds.14 mph68%30.15 "HgN/A
4:00 PM63 °FScattered clouds.13 mph68%30.15 "HgN/A
3:30 PM63 °FScattered clouds.14 mph73%30.15 "HgN/A
3:00 PM63 °FScattered clouds.12 mph73%30.15 "HgN/A
2:30 PM64 °FScattered clouds.15 mph64%30.15 "HgN/A
2:00 PM64 °FScattered clouds.16 mph68%30.15 "HgN/A
1:30 PM64 °FScattered clouds.14 mph68%30.15 "HgN/A
1:00 PM64 °FScattered clouds.14 mph68%30.15 "HgN/A
12:30 PM64 °FScattered clouds.12 mph68%30.15 "HgN/A
12:00 PM64 °FScattered clouds.13 mph68%30.15 "HgN/A
11:30 AM63 °FScattered clouds.10 mph73%30.15 "HgN/A
11:00 AM61 °FScattered clouds.12 mph77%30.15 "HgN/A
10:30 AM61 °FPassing clouds.12 mph77%30.15 "HgN/A
10:00 AM63 °FPassing clouds.9 mph73%30.15 "HgN/A
9:30 AM61 °FPassing clouds.8 mph77%30.15 "HgN/A
9:00 AM61 °FPassing clouds.7 mph77%30.15 "HgN/A
8:30 AM59 °FPassing clouds.6 mph82%30.15 "HgN/A
8:00 AM59 °FPassing clouds.6 mph82%30.12 "HgN/A
7:30 AM59 °FPassing clouds.7 mph82%30.12 "HgN/A
7:00 AM59 °FPassing clouds.7 mph82%30.12 "HgN/A
6:30 AM59 °FPassing clouds.8 mph88%30.12 "HgN/A
6:00 AM59 °FPassing clouds.6 mph88%30.12 "HgN/A
5:30 AM59 °FSprinkles. Passing clouds.6 mph88%30.12 "Hg6 mi
5:00 AM59 °FSprinkles. Passing clouds.7 mph82%30.15 "Hg6 mi
4:30 AM61 °FSprinkles. Passing clouds.5 mph77%30.15 "Hg6 mi
4:00 AM61 °FPassing clouds.6 mph72%30.15 "HgN/A
3:30 AM61 °FPassing clouds.7 mph68%30.15 "HgN/A
3:00 AM61 °FPassing clouds.7 mph72%30.15 "HgN/A
2:30 AM61 °FPassing clouds.8 mph77%30.18 "HgN/A
2:00 AM61 °FPassing clouds.5 mph77%30.18 "HgN/A
1:30 AM61 °FPassing clouds.7 mph77%30.18 "HgN/A
1:00 AM61 °FPassing clouds.9 mph77%30.18 "HgN/A
12:30 AM63 °FPassing clouds.9 mph73%30.18 "HgN/A
12:00 AM63 °FPassing clouds.12 mph77%30.18 "HgN/A
Weather by CustomWeather, © 2015

See weather overviewHow to use our weather pages